Weather History for KHNZ - November, 2012

Change the Weather History Date:

Sunday, November 18, 2012

  Actual Average (KRDU) Record (KRDU)
Temperature  
Mean Temperature 48 °F 52 °F  
Max Temperature 53 °F 63 °F 79 °F (1942)
Min Temperature 42 °F 40 °F 21 °F (1959)
Degree Days  
Heating Degree Days 18 14  
Month to date heating degree days 204  
Since 1 July heating degree days 393  
Cooling Degree Days 0 0  
Month to date cooling degree days 1  
Year to date cooling degree days 1721  
Moisture  
Dew Point 40 °F    
Average Humidity 73    
Maximum Humidity 81    
Minimum Humidity 62    
Precipitation  
Precipitation 0.00 in 0.10 in 0.80 in (1902)
Month to date precipitation 1.88  
Year to date precipitation 39.03  
Sea Level Pressure  
Sea Level Pressure 30.43 in    
Wind  
Wind Speed 9 mph (NNE)    
Max Wind Speed 14 mph    
Max Gust Speed 22 mph    
Visibility 10 miles    
Events      
T = Trace of Precipitation, MM = Missing Value Source: NWS Daily Summary

Daily Weather History Graph

Daily Weather History Graph

Search for Another Location

Airport or City:

Trip Planner

Search our weather history database for the weather conditions in past years. The results will help you decide how hot, cold, wet, or windy it might be!

Date:

Astronomy

Nov. 18, 2012 Rise Set
Actual Time 6:54 AM EST 5:03 PM EST
Civil Twilight 6:27 AM EST 5:31 PM EST
Nautical Twilight 5:55 AM EST 6:02 PM EST
Astronomical Twilight 5:25 AM EST 6:33 PM EST
Moon 11:22 AM EST (11/18) 10:18 PM EST (11/18)
Length of Visible Light 11h 04m
Length of Day
10h 08m
Waxing Crescent, 30% of the Moon is Illuminated
Nov 18
Waxing Crescent
Nov 20
First Quarter
Nov 28
Full
Dec 6
Last Quarter
Dec 13
New

Hourly Weather History & Observations

Time (EST) Temp. Windchill Dew Point Humidity Pressure Visibility Wind Dir Wind Speed Gust Speed Precip Events Conditions
12:15 AM 42.8 °F 39.3 °F 33.8 °F 70% 30.47 in 10.0 mi NNE 5.8 mph - N/A   Overcast
12:35 AM 42.8 °F 38.6 °F 35.6 °F 76% 30.47 in 10.0 mi NNE 6.9 mph - N/A   Overcast
12:55 AM 42.8 °F 38.6 °F 35.6 °F 76% 30.47 in 10.0 mi NNE 6.9 mph - N/A   Overcast
1:15 AM 42.8 °F 38.6 °F 35.6 °F 76% 30.47 in 10.0 mi North 6.9 mph - N/A   Overcast
1:35 AM 42.8 °F 38.0 °F 35.6 °F 76% 30.47 in 10.0 mi NNE 8.1 mph - N/A   Overcast
1:55 AM 42.8 °F 38.6 °F 35.6 °F 76% 30.47 in 10.0 mi NNE 6.9 mph - N/A   Overcast
2:15 AM 42.8 °F 37.0 °F 37.4 °F 81% 30.46 in 10.0 mi NNE 10.4 mph - N/A   Overcast
2:35 AM 42.8 °F 37.0 °F 37.4 °F 81% 30.47 in 10.0 mi NNE 10.4 mph - N/A   Overcast
2:55 AM 44.6 °F 40.2 °F 37.4 °F 76% 30.46 in 10.0 mi NNE 8.1 mph - N/A   Overcast
3:15 AM 42.8 °F 36.6 °F 37.4 °F 81% 30.45 in 10.0 mi NNE 11.5 mph 17.3 mph N/A   Overcast
3:55 AM 44.6 °F 39.2 °F 37.4 °F 76% 30.44 in 10.0 mi NNE 10.4 mph 17.3 mph N/A   Overcast
4:15 AM 44.6 °F 39.7 °F 37.4 °F 76% 30.45 in 10.0 mi NNE 9.2 mph 16.1 mph N/A   Overcast
4:35 AM 44.6 °F 40.7 °F 37.4 °F 76% 30.46 in 10.0 mi North 6.9 mph - N/A   Overcast
4:55 AM 44.6 °F 39.7 °F 37.4 °F 76% 30.47 in 10.0 mi NNE 9.2 mph - N/A   Overcast
5:15 AM 44.6 °F 40.2 °F 37.4 °F 76% 30.46 in 10.0 mi North 8.1 mph - N/A   Overcast
5:35 AM 44.6 °F 38.8 °F 37.4 °F 76% 30.46 in 10.0 mi NNE 11.5 mph - N/A   Overcast
5:55 AM 44.6 °F 38.4 °F 39.2 °F 81% 30.47 in 10.0 mi NNE 12.7 mph 16.1 mph N/A   Overcast
6:15 AM 44.6 °F 40.2 °F 39.2 °F 81% 30.47 in 10.0 mi North 8.1 mph - N/A   Overcast
6:35 AM 44.6 °F 39.7 °F 39.2 °F 81% 30.47 in 10.0 mi NNE 9.2 mph 17.3 mph N/A   Overcast
6:55 AM 44.6 °F 38.4 °F 39.2 °F 81% 30.47 in 10.0 mi NNE 12.7 mph 17.3 mph N/A   Overcast
7:15 AM 44.6 °F 39.2 °F 39.2 °F 81% 30.47 in 10.0 mi NNE 10.4 mph 16.1 mph N/A   Overcast
7:35 AM 44.6 °F 38.8 °F 39.2 °F 81% 30.47 in 10.0 mi NNE 11.5 mph 20.7 mph N/A   Overcast
7:55 AM 44.6 °F 38.8 °F 39.2 °F 81% 30.47 in 10.0 mi NNE 11.5 mph - N/A   Overcast
8:15 AM 44.6 °F 39.7 °F 39.2 °F 81% 30.48 in 10.0 mi NNE 9.2 mph - N/A   Overcast
8:35 AM 44.6 °F 40.2 °F 39.2 °F 81% 30.49 in 10.0 mi NNE 8.1 mph - N/A   Overcast
8:55 AM 44.6 °F 38.1 °F 39.2 °F 81% 30.48 in 10.0 mi NNE 13.8 mph 21.9 mph N/A   Overcast
9:15 AM 46.4 °F 41.1 °F 39.2 °F 76% 30.48 in 10.0 mi NE 11.5 mph 20.7 mph N/A   Overcast
9:35 AM 46.4 °F 41.9 °F 41.0 °F 81% 30.47 in 10.0 mi NNE 9.2 mph 16.1 mph N/A   Mostly Cloudy
9:55 AM 48.2 °F - 41.0 °F 76% 30.47 in 10.0 mi NNE 10.4 mph 16.1 mph N/A   Scattered Clouds
10:15 AM 48.2 °F - 41.0 °F 76% 30.47 in 10.0 mi NNE 12.7 mph 20.7 mph N/A   Mostly Cloudy
10:35 AM 50.0 °F - 41.0 °F 71% 30.47 in 10.0 mi NNE 12.7 mph 18.4 mph N/A   Mostly Cloudy
10:55 AM 50.0 °F - 41.0 °F 71% 30.47 in 10.0 mi North 9.2 mph - N/A   Mostly Cloudy
11:15 AM 50.0 °F - 41.0 °F 71% 30.46 in 10.0 mi NNE 13.8 mph 20.7 mph N/A   Scattered Clouds
11:35 AM 50.0 °F - 41.0 °F 71% 30.45 in 10.0 mi NNE 12.7 mph 17.3 mph N/A   Scattered Clouds
11:55 AM 51.8 °F - 41.0 °F 67% 30.44 in 10.0 mi NNE 9.2 mph 17.3 mph N/A   Scattered Clouds
12:15 PM 51.8 °F - 41.0 °F 67% 30.43 in 10.0 mi North 10.4 mph 17.3 mph N/A   Mostly Cloudy
12:35 PM 51.8 °F - 41.0 °F 67% 30.42 in 10.0 mi NNE 11.5 mph 17.3 mph N/A   Overcast
12:55 PM 51.8 °F - 41.0 °F 67% 30.42 in 10.0 mi North 11.5 mph - N/A   Overcast
1:15 PM 51.8 °F - 41.0 °F 67% 30.41 in 10.0 mi NNE 9.2 mph 18.4 mph N/A   Mostly Cloudy
1:35 PM 51.8 °F - 41.0 °F 67% 30.41 in 10.0 mi North 10.4 mph - N/A   Overcast
1:55 PM 53.6 °F - 41.0 °F 62% 30.40 in 10.0 mi NNE 11.5 mph 17.3 mph N/A   Overcast
2:15 PM 51.8 °F - 41.0 °F 67% 30.40 in 10.0 mi North 9.2 mph - N/A   Overcast
2:55 PM 53.6 °F - 41.0 °F 62% 30.39 in 10.0 mi NNE 12.7 mph 16.1 mph N/A   Overcast
3:15 PM 51.8 °F - 41.0 °F 67% 30.39 in 10.0 mi NNE 8.1 mph 18.4 mph N/A   Overcast
3:35 PM 51.8 °F - 41.0 °F 67% 30.39 in 10.0 mi North 10.4 mph 17.3 mph N/A   Mostly Cloudy
3:55 PM 51.8 °F - 41.0 °F 67% 30.39 in 10.0 mi NNE 10.4 mph - N/A   Overcast
4:15 PM 51.8 °F - 41.0 °F 67% 30.40 in 10.0 mi NNE 10.4 mph 18.4 mph N/A   Overcast
4:35 PM 51.8 °F - 41.0 °F 67% 30.40 in 10.0 mi NNE 10.4 mph 16.1 mph N/A   Overcast
4:55 PM 51.8 °F - 41.0 °F 67% 30.40 in 10.0 mi NNE 9.2 mph - N/A   Overcast
5:15 PM 51.8 °F - 41.0 °F 67% 30.39 in 10.0 mi North 8.1 mph - N/A   Overcast
5:55 PM 51.8 °F - 41.0 °F 67% 30.39 in 10.0 mi NNE 11.5 mph 17.3 mph N/A   Overcast
6:15 PM 51.8 °F - 41.0 °F 67% 30.40 in 10.0 mi NNE 9.2 mph 17.3 mph N/A   Overcast
6:35 PM 51.8 °F - 41.0 °F 67% 30.40 in 10.0 mi NNE 12.7 mph - N/A   Overcast
6:55 PM 51.8 °F - 41.0 °F 67% 30.40 in 10.0 mi North 9.2 mph - N/A   Overcast
7:15 PM 51.8 °F - 41.0 °F 67% 30.40 in 10.0 mi NNE 9.2 mph 17.3 mph N/A   Overcast
7:55 PM 51.8 °F - 41.0 °F 67% 30.40 in 10.0 mi NNE 10.4 mph 19.6 mph N/A   Overcast
8:15 PM 50.0 °F - 41.0 °F 71% 30.40 in 10.0 mi NNE 13.8 mph 17.3 mph N/A   Overcast
8:35 PM 50.0 °F - 41.0 °F 71% 30.40 in 10.0 mi NNE 10.4 mph - N/A   Overcast
8:55 PM 50.0 °F - 41.0 °F 71% 30.40 in 10.0 mi NNE 11.5 mph 17.3 mph N/A   Overcast
9:15 PM 50.0 °F - 41.0 °F 71% 30.40 in 10.0 mi NNE 11.5 mph 17.3 mph N/A   Overcast
9:35 PM 50.0 °F - 41.0 °F 71% 30.40 in 10.0 mi NNE 10.4 mph 20.7 mph N/A   Overcast
9:55 PM 50.0 °F - 41.0 °F 71% 30.40 in 10.0 mi NNE 10.4 mph 17.3 mph N/A   Overcast
10:15 PM 50.0 °F - 41.0 °F 71% 30.39 in 10.0 mi NNE 12.7 mph 18.4 mph N/A   Overcast
10:35 PM 50.0 °F - 41.0 °F 71% 30.38 in 10.0 mi NNE 9.2 mph 18.4 mph N/A   Overcast
10:55 PM 50.0 °F - 41.0 °F 71% 30.38 in 10.0 mi NNE 10.4 mph 17.3 mph N/A   Overcast
11:15 PM 50.0 °F - 41.0 °F 71% 30.38 in 10.0 mi NNE 10.4 mph 16.1 mph N/A   Overcast
11:35 PM 48.2 °F - 41.0 °F 76% 30.37 in 10.0 mi NNE 11.5 mph 16.1 mph N/A   Overcast
11:55 PM 48.2 °F - 41.0 °F 76% 30.37 in 10.0 mi NNE 11.5 mph 17.3 mph N/A   Overcast